Time,TemperatureF,DewpointF,PressureIn,WindDirection,WindDirectionDegrees,WindSpeedMPH,WindSpeedGustMPH,Humidity,HourlyPrecipIn,Conditions,Clouds,dailyrainin,SoftwareType,DateUTC
2013-07-26 00:00:00,83.2,50.3,30.06,West,269,7.0,17.0,32,0.00,,---,0.00,VWS V14.01,2013-07-26 07:00:00,
2013-07-26 00:02:00,83.2,50.3,30.06,WSW,253,5.0,11.0,32,0.00,,---,0.00,VWS V14.01,2013-07-26 07:02:00,
2013-07-26 00:07:00,83.5,50.6,30.06,WSW,252,2.0,19.0,32,0.00,,---,0.00,VWS V14.01,2013-07-26 07:07:00,
2013-07-26 00:12:00,83.3,50.4,30.06,West,269,6.0,19.0,32,0.00,,---,0.00,VWS V14.01,2013-07-26 07:12:00,
2013-07-26 00:17:00,83.3,50.4,30.06,SW,229,3.0,19.0,32,0.00,,---,0.00,VWS V14.01,2013-07-26 07:17:00,
2013-07-26 00:22:00,83.3,50.4,30.06,NW,308,2.0,19.0,32,0.00,,---,0.00,VWS V14.01,2013-07-26 07:22:00,
2013-07-26 00:27:00,83.1,50.2,30.07,West,276,7.0,19.0,32,0.00,,---,0.00,VWS V14.01,2013-07-26 07:27:00,
2013-07-26 00:30:00,83.1,50.2,30.07,WNW,296,7.0,19.0,32,0.00,,---,0.00,VWS V14.01,2013-07-26 07:30:00,
2013-07-26 00:32:00,83.2,50.3,30.07,WNW,296,4.0,11.0,32,0.00,,---,0.00,VWS V14.01,2013-07-26 07:32:00,
2013-07-26 00:37:00,83.1,50.2,30.07,SW,222,7.0,11.0,32,0.00,,---,0.00,VWS V14.01,2013-07-26 07:37:00,
2013-07-26 00:42:00,83.3,49.5,30.07,WSW,243,6.0,13.0,31,0.00,,---,0.00,VWS V14.01,2013-07-26 07:42:00,
2013-07-26 00:47:00,83.4,49.6,30.07,WNW,290,4.0,15.0,31,0.00,,---,0.00,VWS V14.01,2013-07-26 07:47:00,
2013-07-26 00:52:00,83.4,50.5,30.08,WSW,252,5.0,15.0,32,0.00,,---,0.00,VWS V14.01,2013-07-26 07:52:00,
2013-07-26 00:57:00,83.3,50.4,30.08,WNW,285,5.0,15.0,32,0.00,,---,0.00,VWS V14.01,2013-07-26 07:57:00,
2013-07-26 01:00:00,83.3,50.4,30.08,WSW,252,3.0,15.0,32,0.00,,---,0.00,VWS V14.01,2013-07-26 08:00:00,
2013-07-26 01:02:00,83.1,50.2,30.07,West,276,3.0,13.0,32,0.00,,---,0.00,VWS V14.01,2013-07-26 08:02:00,
2013-07-26 01:07:00,83.0,50.1,30.07,West,277,2.0,13.0,32,0.00,,---,0.00,VWS V14.01,2013-07-26 08:07:00,
2013-07-26 01:12:00,82.8,50.8,30.07,NW,308,3.0,13.0,33,0.00,,---,0.00,VWS V14.01,2013-07-26 08:12:00,
2013-07-26 01:17:00,82.7,50.7,30.06,WSW,257,4.0,13.0,33,0.00,,---,0.00,VWS V14.01,2013-07-26 08:17:00,
2013-07-26 01:22:00,82.3,50.3,30.06,WNW,288,6.0,13.0,33,0.00,,---,0.00,VWS V14.01,2013-07-26 08:22:00,
2013-07-26 01:27:00,82.3,50.3,30.06,WSW,240,11.0,13.0,33,0.00,,---,0.00,VWS V14.01,2013-07-26 08:27:00,
2013-07-26 01:30:00,82.3,50.3,30.06,SW,226,3.0,13.0,33,0.00,,---,0.00,VWS V14.01,2013-07-26 08:30:00,
2013-07-26 01:32:00,82.1,51.0,30.06,WSW,248,3.0,10.0,34,0.00,,---,0.00,VWS V14.01,2013-07-26 08:32:00,
2013-07-26 01:37:00,81.8,50.7,30.05,WSW,248,5.0,12.0,34,0.00,,---,0.00,VWS V14.01,2013-07-26 08:37:00,
2013-07-26 01:42:00,81.7,50.6,30.05,West,271,4.0,16.0,34,0.00,,---,0.00,VWS V14.01,2013-07-26 08:42:00,
2013-07-26 01:47:00,81.5,51.2,30.05,West,276,4.0,16.0,35,0.00,,---,0.00,VWS V14.01,2013-07-26 08:47:00,
2013-07-26 01:52:00,81.6,49.7,30.05,WSW,249,6.0,16.0,33,0.00,,---,0.00,VWS V14.01,2013-07-26 08:52:00,
2013-07-26 01:57:00,81.4,51.2,30.06,West,278,4.0,16.0,35,0.00,,---,0.00,VWS V14.01,2013-07-26 08:57:00,
2013-07-26 02:00:00,81.3,51.1,30.05,West,276,5.0,16.0,35,0.00,,---,0.00,VWS V14.01,2013-07-26 09:00:00,
2013-07-26 02:02:00,81.2,51.0,30.06,West,271,4.0,10.0,35,0.00,,---,0.00,VWS V14.01,2013-07-26 09:02:00,
2013-07-26 02:07:00,81.2,51.7,30.06,WSW,242,6.0,10.0,36,0.00,,---,0.00,VWS V14.01,2013-07-26 09:07:00,
2013-07-26 02:12:00,81.1,51.7,30.06,SE,142,2.0,10.0,36,0.00,,---,0.00,VWS V14.01,2013-07-26 09:12:00,
2013-07-26 02:17:00,80.9,51.5,30.05,WSW,249,2.0,11.0,36,0.00,,---,0.00,VWS V14.01,2013-07-26 09:17:00,
2013-07-26 02:22:00,80.8,51.4,30.05,West,276,4.0,11.0,36,0.00,,---,0.00,VWS V14.01,2013-07-26 09:22:00,
2013-07-26 02:27:00,80.6,51.2,30.05,West,274,7.0,13.0,36,0.00,,---,0.00,VWS V14.01,2013-07-26 09:27:00,
2013-07-26 02:30:00,80.6,51.2,30.05,SW,215,4.0,13.0,36,0.00,,---,0.00,VWS V14.01,2013-07-26 09:30:00,
2013-07-26 02:32:00,80.7,51.3,30.05,West,271,9.0,12.0,36,0.00,,---,0.00,VWS V14.01,2013-07-26 09:32:00,
2013-07-26 02:37:00,80.6,52.0,30.05,WSW,244,12.0,12.0,37,0.00,,---,0.00,VWS V14.01,2013-07-26 09:37:00,
2013-07-26 02:42:00,80.4,51.8,30.05,WNW,283,3.0,14.0,37,0.00,,---,0.00,VWS V14.01,2013-07-26 09:42:00,
2013-07-26 02:47:00,80.3,51.7,30.06,WNW,302,4.0,14.0,37,0.00,,---,0.00,VWS V14.01,2013-07-26 09:47:00,
2013-07-26 02:52:00,80.2,53.0,30.06,South,169,1.0,14.0,39,0.00,,---,0.00,VWS V14.01,2013-07-26 09:52:00,
2013-07-26 02:57:00,79.9,52.8,30.06,West,264,6.0,14.0,39,0.00,,---,0.00,VWS V14.01,2013-07-26 09:57:00,
2013-07-26 03:00:00,79.9,52.8,30.06,WSW,255,5.0,14.0,39,0.00,,---,0.00,VWS V14.01,2013-07-26 10:00:00,
2013-07-26 03:02:00,79.9,52.8,30.06,WSW,243,6.0,11.0,39,0.00,,---,0.00,VWS V14.01,2013-07-26 10:02:00,
2013-07-26 03:07:00,79.9,52.8,30.06,West,274,6.0,11.0,39,0.00,,---,0.00,VWS V14.01,2013-07-26 10:07:00,
2013-07-26 03:12:00,79.7,53.3,30.05,WSW,240,3.0,13.0,40,0.00,,---,0.00,VWS V14.01,2013-07-26 10:12:00,
2013-07-26 03:17:00,79.3,52.9,30.05,WSW,252,3.0,13.0,40,0.00,,---,0.00,VWS V14.01,2013-07-26 10:17:00,
2013-07-26 03:22:00,79.2,53.5,30.06,WSW,255,7.0,13.0,41,0.00,,---,0.00,VWS V14.01,2013-07-26 10:22:00,
2013-07-26 03:27:00,79.1,53.4,30.06,SW,235,5.0,13.0,41,0.00,,---,0.00,VWS V14.01,2013-07-26 10:27:00,
2013-07-26 03:30:00,79.0,53.3,30.06,West,262,7.0,13.0,41,0.00,,---,0.00,VWS V14.01,2013-07-26 10:30:00,
2013-07-26 03:32:00,79.1,53.4,30.06,West,269,9.0,12.0,41,0.00,,---,0.00,VWS V14.01,2013-07-26 10:32:00,
2013-07-26 03:37:00,79.2,53.5,30.06,SW,232,6.0,14.0,41,0.00,,---,0.00,VWS V14.01,2013-07-26 10:37:00,
2013-07-26 03:42:00,79.4,53.7,30.06,WSW,243,10.0,14.0,41,0.00,,---,0.00,VWS V14.01,2013-07-26 10:42:00,
2013-07-26 03:47:00,79.5,53.8,30.06,WSW,238,6.0,14.0,41,0.00,,---,0.00,VWS V14.01,2013-07-26 10:47:00,
2013-07-26 03:52:00,79.6,53.8,30.06,West,267,8.0,14.0,41,0.00,,---,0.00,VWS V14.01,2013-07-26 10:52:00,
2013-07-26 03:57:00,79.4,53.7,30.07,NNW,330,5.0,14.0,41,0.00,,---,0.00,VWS V14.01,2013-07-26 10:57:00,
2013-07-26 04:00:00,79.5,53.1,30.07,WNW,283,8.0,14.0,40,0.00,,---,0.00,VWS V14.01,2013-07-26 11:00:00,
2013-07-26 04:02:00,79.5,53.8,30.06,WSW,250,5.0,14.0,41,0.00,,---,0.00,VWS V14.01,2013-07-26 11:02:00,
2013-07-26 04:07:00,79.4,53.7,30.06,WNW,297,5.0,14.0,41,0.00,,---,0.00,VWS V14.01,2013-07-26 11:07:00,
2013-07-26 04:12:00,79.6,53.8,30.06,West,270,8.0,14.0,41,0.00,,---,0.00,VWS V14.01,2013-07-26 11:12:00,
2013-07-26 04:17:00,79.5,54.4,30.06,West,266,5.0,14.0,42,0.00,,---,0.00,VWS V14.01,2013-07-26 11:17:00,
2013-07-26 04:22:00,79.2,54.2,30.05,West,263,9.0,14.0,42,0.00,,---,0.00,VWS V14.01,2013-07-26 11:22:00,
2013-07-26 04:27:00,78.9,55.2,30.05,SW,226,5.0,14.0,44,0.00,,---,0.00,VWS V14.01,2013-07-26 11:27:00,
2013-07-26 04:30:00,78.7,56.2,30.05,WNW,285,7.0,14.0,46,0.00,,---,0.00,VWS V14.01,2013-07-26 11:30:00,
2013-07-26 04:32:00,78.2,55.1,30.06,WSW,246,5.0,11.0,45,0.00,,---,0.00,VWS V14.01,2013-07-26 11:32:00,
2013-07-26 04:37:00,78.0,55.6,30.05,SW,220,6.0,11.0,46,0.00,,---,0.00,VWS V14.01,2013-07-26 11:37:00,
2013-07-26 04:42:00,77.9,56.1,30.06,West,264,5.0,11.0,47,0.00,,---,0.00,VWS V14.01,2013-07-26 11:42:00,
2013-07-26 04:47:00,77.6,56.4,30.06,West,280,6.0,13.0,48,0.00,,---,0.00,VWS V14.01,2013-07-26 11:47:00,
2013-07-26 04:52:00,77.5,55.7,30.06,West,271,4.0,13.0,47,0.00,,---,0.00,VWS V14.01,2013-07-26 11:52:00,
2013-07-26 04:57:00,77.4,55.6,30.06,WNW,287,4.0,13.0,47,0.00,,---,0.00,VWS V14.01,2013-07-26 11:57:00,
2013-07-26 05:00:00,77.4,55.6,30.06,West,262,6.0,13.0,47,0.00,,---,0.00,VWS V14.01,2013-07-26 12:00:00,
2013-07-26 05:02:00,77.4,55.6,30.05,West,267,9.0,11.0,47,0.00,,---,0.00,VWS V14.01,2013-07-26 12:02:00,
2013-07-26 05:07:00,77.5,55.1,30.04,West,274,4.0,14.0,46,0.00,,---,0.00,VWS V14.01,2013-07-26 12:07:00,
2013-07-26 05:12:00,77.5,55.1,30.05,NW,308,3.0,14.0,46,0.00,,---,0.00,VWS V14.01,2013-07-26 12:12:00,
2013-07-26 05:17:00,77.5,55.7,30.05,West,281,3.0,14.0,47,0.00,,---,0.00,VWS V14.01,2013-07-26 12:17:00,
2013-07-26 05:22:00,77.5,55.7,30.05,WSW,245,15.0,15.0,47,0.00,,---,0.00,VWS V14.01,2013-07-26 12:22:00,
2013-07-26 05:27:00,77.3,56.1,30.05,West,260,6.0,15.0,48,0.00,,---,0.00,VWS V14.01,2013-07-26 12:27:00,
2013-07-26 05:30:00,77.2,56.0,30.05,West,264,5.0,15.0,48,0.00,,---,0.00,VWS V14.01,2013-07-26 12:30:00,
2013-07-26 05:32:00,76.9,56.9,30.05,West,259,8.0,14.0,50,0.00,,---,0.00,VWS V14.01,2013-07-26 12:32:00,
2013-07-26 05:37:00,76.4,57.0,30.05,WSW,238,10.0,14.0,51,0.00,,---,0.00,VWS V14.01,2013-07-26 12:37:00,
2013-07-26 05:42:00,76.1,56.7,30.05,WSW,245,4.0,14.0,51,0.00,,---,0.00,VWS V14.01,2013-07-26 12:42:00,
2013-07-26 05:47:00,76.1,56.7,30.05,West,269,7.0,14.0,51,0.00,,---,0.00,VWS V14.01,2013-07-26 12:47:00,
2013-07-26 05:52:00,76.2,56.8,30.05,WNW,289,2.0,14.0,51,0.00,,---,0.00,VWS V14.01,2013-07-26 12:52:00,
2013-07-26 05:57:00,76.5,56.5,30.06,WNW,293,3.0,14.0,50,0.00,,---,0.00,VWS V14.01,2013-07-26 12:57:00,
2013-07-26 06:00:00,76.5,56.5,30.06,SSW,212,4.0,14.0,50,0.00,,---,0.00,VWS V14.01,2013-07-26 13:00:00,
2013-07-26 06:02:00,76.8,55.7,30.05,West,271,9.0,13.0,48,0.00,,---,0.00,VWS V14.01,2013-07-26 13:02:00,
2013-07-26 06:07:00,77.3,56.1,30.06,WSW,257,7.0,13.0,48,0.00,,---,0.00,VWS V14.01,2013-07-26 13:07:00,
2013-07-26 06:12:00,77.6,55.8,30.06,West,276,11.0,14.0,47,0.00,,---,0.00,VWS V14.01,2013-07-26 13:12:00,
2013-07-26 06:17:00,77.5,55.7,30.06,SW,214,5.0,14.0,47,0.00,,---,0.00,VWS V14.01,2013-07-26 13:17:00,
2013-07-26 06:22:00,77.7,56.5,30.06,West,263,8.0,14.0,48,0.00,,---,0.00,VWS V14.01,2013-07-26 13:22:00,
2013-07-26 06:27:00,77.8,56.0,30.06,West,263,5.0,14.0,47,0.00,,---,0.00,VWS V14.01,2013-07-26 13:27:00,
2013-07-26 06:30:00,77.8,56.0,30.06,West,274,6.0,14.0,47,0.00,,---,0.00,VWS V14.01,2013-07-26 13:30:00,
2013-07-26 06:32:00,77.9,56.7,30.06,SW,220,8.0,10.0,48,0.00,,---,0.00,VWS V14.01,2013-07-26 13:32:00,
2013-07-26 06:37:00,77.8,56.6,30.06,WSW,240,10.0,14.0,48,0.00,,---,0.00,VWS V14.01,2013-07-26 13:37:00,
2013-07-26 06:42:00,77.7,56.5,30.06,West,262,9.0,14.0,48,0.00,,---,0.00,VWS V14.01,2013-07-26 13:42:00,
2013-07-26 06:47:00,77.9,56.7,30.07,NW,308,2.0,15.0,48,0.00,,---,0.00,VWS V14.01,2013-07-26 13:47:00,
2013-07-26 06:52:00,77.9,56.7,30.07,WNW,302,4.0,15.0,48,0.00,,---,0.00,VWS V14.01,2013-07-26 13:52:00,
2013-07-26 06:57:00,78.0,56.7,30.07,NW,318,7.0,15.0,48,0.00,,---,0.00,VWS V14.01,2013-07-26 13:57:00,
2013-07-26 07:00:00,78.0,56.7,30.07,West,278,15.0,15.0,48,0.00,,---,0.00,VWS V14.01,2013-07-26 14:00:00,
2013-07-26 07:02:00,78.1,56.8,30.07,WSW,248,12.0,15.0,48,0.00,,---,0.00,VWS V14.01,2013-07-26 14:02:00,
2013-07-26 07:07:00,78.2,56.9,30.07,West,262,6.0,16.0,48,0.00,,---,0.00,VWS V14.01,2013-07-26 14:07:00,
2013-07-26 07:12:00,78.5,56.6,30.08,WSW,256,9.0,16.0,47,0.00,,---,0.00,VWS V14.01,2013-07-26 14:12:00,
2013-07-26 07:17:00,78.8,56.9,30.08,WNW,283,6.0,16.0,47,0.00,,---,0.00,VWS V14.01,2013-07-26 14:17:00,
2013-07-26 07:22:00,78.7,56.8,30.08,WSW,248,11.0,16.0,47,0.00,,---,0.00,VWS V14.01,2013-07-26 14:22:00,
2013-07-26 07:27:00,78.8,56.9,30.09,West,264,4.0,16.0,47,0.00,,---,0.00,VWS V14.01,2013-07-26 14:27:00,
2013-07-26 07:30:00,78.8,56.9,30.09,West,276,5.0,16.0,47,0.00,,---,0.00,VWS V14.01,2013-07-26 14:30:00,
2013-07-26 07:32:00,79.3,56.8,30.09,WNW,297,8.0,10.0,46,0.00,,---,0.00,VWS V14.01,2013-07-26 14:32:00,
2013-07-26 07:37:00,79.5,56.9,30.09,SW,225,6.0,11.0,46,0.00,,---,0.00,VWS V14.01,2013-07-26 14:37:00,
2013-07-26 07:42:00,79.9,57.3,30.09,WSW,246,8.0,11.0,46,0.00,,---,0.00,VWS V14.01,2013-07-26 14:42:00,
2013-07-26 07:47:00,80.2,57.0,30.09,WSW,240,6.0,11.0,45,0.00,,---,0.00,VWS V14.01,2013-07-26 14:47:00,
2013-07-26 07:52:00,80.9,56.3,30.09,WNW,283,8.0,11.0,43,0.00,,---,0.00,VWS V14.01,2013-07-26 14:52:00,
2013-07-26 07:57:00,81.4,56.8,30.10,WSW,248,2.0,11.0,43,0.00,,---,0.00,VWS V14.01,2013-07-26 14:57:00,
2013-07-26 08:00:00,81.5,56.9,30.10,WSW,248,1.0,11.0,43,0.00,,---,0.00,VWS V14.01,2013-07-26 15:00:00,
2013-07-26 08:02:00,81.7,57.0,30.10,West,281,2.0,6.0,43,0.00,,---,0.00,VWS V14.01,2013-07-26 15:02:00,
2013-07-26 08:07:00,81.8,55.8,30.10,West,271,1.0,6.0,41,0.00,,---,0.00,VWS V14.01,2013-07-26 15:07:00,
2013-07-26 08:12:00,82.6,56.5,30.10,West,259,0.0,6.0,41,0.00,,---,0.00,VWS V14.01,2013-07-26 15:12:00,
2013-07-26 08:17:00,83.9,55.6,30.10,WNW,302,0.0,6.0,38,0.00,,---,0.00,VWS V14.01,2013-07-26 15:17:00,
2013-07-26 08:22:00,85.4,54.7,30.10,WNW,283,1.0,6.0,35,0.00,,---,0.00,VWS V14.01,2013-07-26 15:22:00,
2013-07-26 08:27:00,86.2,54.6,30.10,NW,319,2.0,6.0,34,0.00,,---,0.00,VWS V14.01,2013-07-26 15:27:00,
2013-07-26 08:30:00,86.3,54.7,30.10,NW,309,1.0,6.0,34,0.00,,---,0.00,VWS V14.01,2013-07-26 15:30:00,
2013-07-26 08:32:00,87.1,55.4,30.10,West,278,0.0,4.0,34,0.00,,---,0.00,VWS V14.01,2013-07-26 15:32:00,
2013-07-26 08:37:00,87.6,55.0,30.10,NE,53,1.0,4.0,33,0.00,,---,0.00,VWS V14.01,2013-07-26 15:37:00,
2013-07-26 08:42:00,88.1,55.4,30.10,WSW,250,2.0,4.0,33,0.00,,---,0.00,VWS V14.01,2013-07-26 15:42:00,
2013-07-26 08:47:00,88.2,54.7,30.10,West,260,5.0,5.0,32,0.00,,---,0.00,VWS V14.01,2013-07-26 15:47:00,
2013-07-26 08:52:00,88.1,55.4,30.10,WNW,302,4.0,8.0,33,0.00,,---,0.00,VWS V14.01,2013-07-26 15:52:00,
2013-07-26 08:57:00,87.8,55.2,30.10,SW,228,5.0,10.0,33,0.00,,---,0.00,VWS V14.01,2013-07-26 15:57:00,
2013-07-26 09:00:00,87.8,55.2,30.10,SW,229,6.0,10.0,33,0.00,,---,0.00,VWS V14.01,2013-07-26 16:00:00,
2013-07-26 09:02:00,87.5,54.0,30.10,West,273,5.0,9.0,32,0.00,,---,0.00,VWS V14.01,2013-07-26 16:02:00,
2013-07-26 09:07:00,87.3,54.7,30.10,West,280,5.0,9.0,33,0.00,,---,0.00,VWS V14.01,2013-07-26 16:07:00,
2013-07-26 09:12:00,86.9,55.2,30.10,WNW,296,4.0,9.0,34,0.00,,---,0.00,VWS V14.01,2013-07-26 16:12:00,
2013-07-26 09:17:00,86.6,54.9,30.10,SW,235,7.0,9.0,34,0.00,,---,0.00,VWS V14.01,2013-07-26 16:17:00,
2013-07-26 09:22:00,86.4,54.7,30.10,WSW,243,0.0,9.0,34,0.00,,---,0.00,VWS V14.01,2013-07-26 16:22:00,
2013-07-26 09:27:00,86.6,55.7,30.11,WSW,245,5.0,9.0,35,0.00,,---,0.00,VWS V14.01,2013-07-26 16:27:00,
2013-07-26 09:30:00,86.6,58.0,30.11,West,280,6.0,9.0,38,0.00,,---,0.00,VWS V14.01,2013-07-26 16:30:00,
2013-07-26 09:32:00,85.3,58.3,30.11,WSW,246,1.0,7.0,40,0.00,,---,0.00,VWS V14.01,2013-07-26 16:32:00,
2013-07-26 09:37:00,84.2,58.6,30.11,South,178,2.0,9.0,42,0.00,,---,0.00,VWS V14.01,2013-07-26 16:37:00,
2013-07-26 09:42:00,83.8,58.3,30.10,SW,235,4.0,11.0,42,0.00,,---,0.00,VWS V14.01,2013-07-26 16:42:00,
2013-07-26 09:47:00,84.3,58.7,30.10,WNW,286,8.0,11.0,42,0.00,,---,0.00,VWS V14.01,2013-07-26 16:47:00,
2013-07-26 09:52:00,84.8,58.5,30.10,WNW,299,6.0,11.0,41,0.00,,---,0.00,VWS V14.01,2013-07-26 16:52:00,
2013-07-26 09:57:00,85.4,58.4,30.11,West,263,6.0,11.0,40,0.00,,---,0.00,VWS V14.01,2013-07-26 16:57:00,
2013-07-26 10:00:00,85.4,59.0,30.11,West,276,6.0,11.0,41,0.00,,---,0.00,VWS V14.01,2013-07-26 17:00:00,
2013-07-26 10:02:00,85.2,59.5,30.11,West,264,4.0,10.0,42,0.00,,---,0.00,VWS V14.01,2013-07-26 17:02:00,
2013-07-26 10:07:00,85.3,60.9,30.10,WSW,249,5.0,10.0,44,0.00,,---,0.00,VWS V14.01,2013-07-26 17:07:00,
2013-07-26 10:12:00,85.9,60.2,30.10,SW,232,3.0,10.0,42,0.00,,---,0.00,VWS V14.01,2013-07-26 17:12:00,
2013-07-26 10:17:00,85.8,59.4,30.10,WSW,242,4.0,10.0,41,0.00,,---,0.00,VWS V14.01,2013-07-26 17:17:00,
2013-07-26 10:22:00,86.2,59.8,30.10,WNW,291,4.0,11.0,41,0.00,,---,0.00,VWS V14.01,2013-07-26 17:22:00,
2013-07-26 10:27:00,86.4,59.9,30.10,SW,229,4.0,11.0,41,0.00,,---,0.00,VWS V14.01,2013-07-26 17:27:00,
2013-07-26 10:30:00,86.5,60.0,30.10,WSW,255,2.0,11.0,41,0.00,,---,0.00,VWS V14.01,2013-07-26 17:30:00,
2013-07-26 10:32:00,87.5,59.5,30.10,WSW,248,4.0,7.0,39,0.00,,---,0.00,VWS V14.01,2013-07-26 17:32:00,
2013-07-26 10:37:00,89.0,60.1,30.11,West,270,3.0,8.0,38,0.00,,---,0.00,VWS V14.01,2013-07-26 17:37:00,
2013-07-26 10:42:00,88.4,59.6,30.11,West,262,3.0,11.0,38,0.00,,---,0.00,VWS V14.01,2013-07-26 17:42:00,
2013-07-26 10:47:00,87.4,58.7,30.11,West,262,5.0,11.0,38,0.00,,---,0.00,VWS V14.01,2013-07-26 17:47:00,
2013-07-26 10:52:00,87.0,59.1,30.11,SW,230,3.0,11.0,39,0.00,,---,0.00,VWS V14.01,2013-07-26 17:52:00,
2013-07-26 10:57:00,87.6,58.9,30.11,SSE,152,1.0,11.0,38,0.00,,---,0.00,VWS V14.01,2013-07-26 17:57:00,
2013-07-26 11:00:00,87.6,58.9,30.11,West,280,1.0,11.0,38,0.00,,---,0.00,VWS V14.01,2013-07-26 18:00:00,
2013-07-26 11:02:00,88.1,58.6,30.12,WSW,253,3.0,9.0,37,0.00,,---,0.00,VWS V14.01,2013-07-26 18:02:00,
2013-07-26 11:07:00,88.8,58.4,30.12,SW,215,1.0,9.0,36,0.00,,---,0.00,VWS V14.01,2013-07-26 18:07:00,
2013-07-26 11:12:00,90.0,58.7,30.12,SW,218,0.0,9.0,35,0.00,,---,0.00,VWS V14.01,2013-07-26 18:12:00,
2013-07-26 11:17:00,90.9,58.7,30.12,WSW,245,2.0,9.0,34,0.00,,---,0.00,VWS V14.01,2013-07-26 18:17:00,
2013-07-26 11:22:00,91.4,56.5,30.12,West,276,3.0,9.0,31,0.00,,---,0.00,VWS V14.01,2013-07-26 18:22:00,
2013-07-26 11:27:00,91.6,56.7,30.12,WSW,255,2.0,9.0,31,0.00,,---,0.00,VWS V14.01,2013-07-26 18:27:00,
2013-07-26 11:30:00,91.6,56.7,30.12,East,81,1.0,9.0,31,0.00,,---,0.00,VWS V14.01,2013-07-26 18:30:00,
2013-07-26 11:32:00,91.5,56.6,30.12,West,281,4.0,6.0,31,0.00,,---,0.00,VWS V14.01,2013-07-26 18:32:00,
2013-07-26 11:37:00,90.9,56.1,30.12,WSW,253,5.0,8.0,31,0.00,,---,0.00,VWS V14.01,2013-07-26 18:37:00,
2013-07-26 11:42:00,91.7,55.9,30.12,WSW,257,3.0,8.0,30,0.00,,---,0.00,VWS V14.01,2013-07-26 18:42:00,
2013-07-26 11:47:00,92.0,56.2,30.12,WNW,300,4.0,8.0,30,0.00,,---,0.00,VWS V14.01,2013-07-26 18:47:00,
2013-07-26 11:52:00,92.0,54.3,30.12,West,270,3.0,8.0,28,0.00,,---,0.00,VWS V14.01,2013-07-26 18:52:00,
2013-07-26 11:57:00,92.0,53.3,30.12,SW,232,3.0,8.0,27,0.00,,---,0.00,VWS V14.01,2013-07-26 18:57:00,
2013-07-26 12:00:00,92.1,53.3,30.12,SW,222,4.0,8.0,27,0.00,,---,0.00,VWS V14.01,2013-07-26 19:00:00,
2013-07-26 12:02:00,91.8,53.1,30.12,West,264,7.0,9.0,27,0.00,,---,0.00,VWS V14.01,2013-07-26 19:02:00,
2013-07-26 12:07:00,92.1,53.3,30.12,West,274,5.0,10.0,27,0.00,,---,0.00,VWS V14.01,2013-07-26 19:07:00,
2013-07-26 12:12:00,91.8,54.1,30.12,West,277,3.0,10.0,28,0.00,,---,0.00,VWS V14.01,2013-07-26 19:12:00,
2013-07-26 12:17:00,92.1,54.3,30.12,West,281,3.0,11.0,28,0.00,,---,0.00,VWS V14.01,2013-07-26 19:17:00,
2013-07-26 12:22:00,92.4,54.6,30.11,NNW,328,4.0,11.0,28,0.00,,---,0.00,VWS V14.01,2013-07-26 19:22:00,
2013-07-26 12:27:00,92.3,52.5,30.11,West,263,4.0,11.0,26,0.00,,---,0.00,VWS V14.01,2013-07-26 19:27:00,
2013-07-26 12:30:00,92.3,52.5,30.11,SW,235,6.0,11.0,26,0.00,,---,0.00,VWS V14.01,2013-07-26 19:30:00,
2013-07-26 12:32:00,92.3,52.5,30.11,West,270,2.0,11.0,26,0.00,,---,0.00,VWS V14.01,2013-07-26 19:32:00,
2013-07-26 12:37:00,92.2,52.4,30.11,West,264,6.0,11.0,26,0.00,,---,0.00,VWS V14.01,2013-07-26 19:37:00,
2013-07-26 12:42:00,92.4,52.6,30.11,West,278,4.0,11.0,26,0.00,,---,0.00,VWS V14.01,2013-07-26 19:42:00,
2013-07-26 12:47:00,92.5,52.7,30.11,West,267,4.0,11.0,26,0.00,,---,0.00,VWS V14.01,2013-07-26 19:47:00,
2013-07-26 12:52:00,92.4,52.6,30.11,WNW,296,6.0,11.0,26,0.00,,---,0.00,VWS V14.01,2013-07-26 19:52:00,
2013-07-26 12:57:00,92.1,51.3,30.11,West,266,5.0,11.0,25,0.00,,---,0.00,VWS V14.01,2013-07-26 19:57:00,
2013-07-26 13:00:00,92.1,52.3,30.11,WNW,287,3.0,11.0,26,0.00,,---,0.00,VWS V14.01,2013-07-26 20:00:00,
2013-07-26 13:02:00,92.0,52.2,30.11,WSW,248,4.0,7.0,26,0.00,,---,0.00,VWS V14.01,2013-07-26 20:02:00,
2013-07-26 13:07:00,91.4,52.8,30.10,SSW,210,2.0,8.0,27,0.00,,---,0.00,VWS V14.01,2013-07-26 20:07:00,
2013-07-26 13:12:00,91.5,52.8,30.10,WSW,249,2.0,8.0,27,0.00,,---,0.00,VWS V14.01,2013-07-26 20:12:00,
2013-07-26 13:17:00,91.9,53.2,30.10,SW,235,0.0,8.0,27,0.00,,---,0.00,VWS V14.01,2013-07-26 20:17:00,
2013-07-26 13:22:00,91.9,54.2,30.10,West,277,0.0,8.0,28,0.00,,---,0.00,VWS V14.01,2013-07-26 20:22:00,
2013-07-26 13:27:00,91.9,54.2,30.10,WSW,243,3.0,8.0,28,0.00,,---,0.00,VWS V14.01,2013-07-26 20:27:00,
2013-07-26 13:30:00,91.9,54.2,30.10,WSW,246,3.0,8.0,28,0.00,,---,0.00,VWS V14.01,2013-07-26 20:30:00,
2013-07-26 13:32:00,91.6,53.9,30.10,WSW,250,4.0,6.0,28,0.00,,---,0.00,VWS V14.01,2013-07-26 20:32:00,
2013-07-26 13:37:00,91.5,53.8,30.09,West,270,3.0,6.0,28,0.00,,---,0.00,VWS V14.01,2013-07-26 20:37:00,
2013-07-26 13:42:00,91.0,54.4,30.09,SW,232,3.0,7.0,29,0.00,,---,0.00,VWS V14.01,2013-07-26 20:42:00,
2013-07-26 13:47:00,90.8,55.1,30.09,WNW,284,3.0,7.0,30,0.00,,---,0.00,VWS V14.01,2013-07-26 20:47:00,
2013-07-26 13:52:00,90.7,54.1,30.09,WNW,290,3.0,7.0,29,0.00,,---,0.00,VWS V14.01,2013-07-26 20:52:00,
2013-07-26 13:57:00,90.7,54.1,30.09,West,278,4.0,8.0,29,0.00,,---,0.00,VWS V14.01,2013-07-26 20:57:00,
2013-07-26 14:00:00,90.7,54.1,30.09,West,276,3.0,8.0,29,0.00,,---,0.00,VWS V14.01,2013-07-26 21:00:00,
2013-07-26 14:02:00,90.6,54.0,30.09,WSW,237,2.0,7.0,29,0.00,,---,0.00,VWS V14.01,2013-07-26 21:02:00,
2013-07-26 14:07:00,90.6,54.0,30.09,West,262,1.0,7.0,29,0.00,,---,0.00,VWS V14.01,2013-07-26 21:07:00,
2013-07-26 14:12:00,90.7,54.1,30.09,West,273,4.0,7.0,29,0.00,,---,0.00,VWS V14.01,2013-07-26 21:12:00,
2013-07-26 14:17:00,90.5,54.9,30.09,WSW,250,4.0,7.0,30,0.00,,---,0.00,VWS V14.01,2013-07-26 21:17:00,
2013-07-26 14:22:00,90.6,55.0,30.09,WNW,285,4.0,7.0,30,0.00,,---,0.00,VWS V14.01,2013-07-26 21:22:00,
2013-07-26 14:27:00,90.7,54.1,30.09,SW,219,2.0,7.0,29,0.00,,---,0.00,VWS V14.01,2013-07-26 21:27:00,
2013-07-26 14:30:00,90.7,54.1,30.09,SW,222,1.0,7.0,29,0.00,,---,0.00,VWS V14.01,2013-07-26 21:30:00,
2013-07-26 14:32:00,90.8,55.1,30.09,WSW,243,2.0,5.0,30,0.00,,---,0.00,VWS V14.01,2013-07-26 21:32:00,
2013-07-26 14:37:00,90.7,55.9,30.09,WNW,302,4.0,6.0,31,0.00,,---,0.00,VWS V14.01,2013-07-26 21:37:00,
2013-07-26 14:42:00,90.5,55.8,30.09,WSW,252,2.0,7.0,31,0.00,,---,0.00,VWS V14.01,2013-07-26 21:42:00,
2013-07-26 14:47:00,90.5,56.6,30.08,West,277,3.0,7.0,32,0.00,,---,0.00,VWS V14.01,2013-07-26 21:47:00,
2013-07-26 14:52:00,90.8,56.0,30.08,West,278,5.0,7.0,31,0.00,,---,0.00,VWS V14.01,2013-07-26 21:52:00,
2013-07-26 14:57:00,90.6,55.8,30.08,SW,225,3.0,7.0,31,0.00,,---,0.00,VWS V14.01,2013-07-26 21:57:00,
2013-07-26 15:00:00,90.6,55.8,30.08,WSW,257,1.0,7.0,31,0.00,,---,0.00,VWS V14.01,2013-07-26 22:00:00,
2013-07-26 15:02:00,90.9,56.1,30.08,West,273,1.0,3.0,31,0.00,,---,0.00,VWS V14.01,2013-07-26 22:02:00,
2013-07-26 15:07:00,91.0,56.2,30.08,West,276,6.0,6.0,31,0.00,,---,0.00,VWS V14.01,2013-07-26 22:07:00,
2013-07-26 15:12:00,90.8,55.1,30.08,NW,318,6.0,8.0,30,0.00,,---,0.00,VWS V14.01,2013-07-26 22:12:00,
2013-07-26 15:17:00,90.6,55.0,30.08,ESE,114,3.0,10.0,30,0.00,,---,0.00,VWS V14.01,2013-07-26 22:17:00,
2013-07-26 15:22:00,91.2,55.5,30.08,East,84,9.0,10.0,30,0.00,,---,0.00,VWS V14.01,2013-07-26 22:22:00,
2013-07-26 15:27:00,92.7,56.8,30.08,NE,50,7.0,10.0,30,0.00,,---,0.00,VWS V14.01,2013-07-26 22:27:00,
2013-07-26 15:30:00,92.7,56.8,30.08,ENE,70,5.0,10.0,30,0.00,,---,0.00,VWS V14.01,2013-07-26 22:30:00,
2013-07-26 15:32:00,93.6,56.6,30.07,NE,44,3.0,12.0,29,0.00,,---,0.00,VWS V14.01,2013-07-26 22:32:00,
2013-07-26 15:37:00,94.0,56.9,30.07,ENE,57,7.0,13.0,29,0.00,,---,0.00,VWS V14.01,2013-07-26 22:37:00,
2013-07-26 15:42:00,93.9,56.8,30.07,East,82,4.0,15.0,29,0.00,,---,0.00,VWS V14.01,2013-07-26 22:42:00,
2013-07-26 15:47:00,93.2,56.2,30.07,NE,41,8.0,15.0,29,0.00,,---,0.00,VWS V14.01,2013-07-26 22:47:00,
2013-07-26 15:52:00,93.2,57.2,30.07,NE,41,5.0,15.0,30,0.00,,---,0.00,VWS V14.01,2013-07-26 22:52:00,
2013-07-26 15:57:00,93.8,56.8,30.07,NE,44,9.0,15.0,29,0.00,,---,0.00,VWS V14.01,2013-07-26 22:57:00,
2013-07-26 16:00:00,93.8,56.8,30.07,NNE,29,7.0,15.0,29,0.00,,---,0.00,VWS V14.01,2013-07-26 23:00:00,
2013-07-26 16:02:00,94.1,56.0,30.07,NE,47,6.0,10.0,28,0.00,,---,0.00,VWS V14.01,2013-07-26 23:02:00,
2013-07-26 16:07:00,93.7,55.7,30.07,East,92,0.0,10.0,28,0.00,,---,0.00,VWS V14.01,2013-07-26 23:07:00,
2013-07-26 16:12:00,94.1,56.0,30.06,WSW,256,3.0,10.0,28,0.00,,---,0.00,VWS V14.01,2013-07-26 23:12:00,
2013-07-26 16:17:00,94.0,56.0,30.07,ENE,70,2.0,10.0,28,0.00,,---,0.00,VWS V14.01,2013-07-26 23:17:00,
2013-07-26 16:22:00,93.3,55.4,30.07,NE,53,3.0,10.0,28,0.00,,---,0.00,VWS V14.01,2013-07-26 23:22:00,
2013-07-26 16:27:00,92.8,55.9,30.06,SE,127,1.0,10.0,29,0.00,,---,0.00,VWS V14.01,2013-07-26 23:27:00,
2013-07-26 16:30:00,92.8,55.9,30.06,SE,131,2.0,10.0,29,0.00,,---,0.00,VWS V14.01,2013-07-26 23:30:00,
2013-07-26 16:32:00,94.0,56.0,30.06,SSW,197,4.0,6.0,28,0.00,,---,0.00,VWS V14.01,2013-07-26 23:32:00,
2013-07-26 16:37:00,94.7,56.6,30.06,NW,305,3.0,6.0,28,0.00,,---,0.00,VWS V14.01,2013-07-26 23:37:00,
2013-07-26 16:42:00,94.4,56.3,30.06,ESE,107,2.0,6.0,28,0.00,,---,0.00,VWS V14.01,2013-07-26 23:42:00,
2013-07-26 16:47:00,94.1,56.0,30.06,NW,308,9.0,9.0,28,0.00,,---,0.00,VWS V14.01,2013-07-26 23:47:00,
2013-07-26 16:52:00,93.6,55.6,30.06,West,277,7.0,11.0,28,0.00,,---,0.00,VWS V14.01,2013-07-26 23:52:00,
2013-07-26 16:57:00,93.8,55.8,30.06,NW,315,3.0,11.0,28,0.00,,---,0.00,VWS V14.01,2013-07-26 23:57:00,
2013-07-26 17:00:00,93.8,55.8,30.06,WNW,296,2.0,11.0,28,0.00,,---,0.00,VWS V14.01,2013-07-27 00:00:00,
2013-07-26 17:02:00,93.9,56.8,30.06,WNW,302,6.0,9.0,29,0.00,,---,0.00,VWS V14.01,2013-07-27 00:02:00,
2013-07-26 17:07:00,94.2,56.1,30.05,NNW,338,6.0,12.0,28,0.00,,---,0.00,VWS V14.01,2013-07-27 00:07:00,
2013-07-26 17:12:00,94.2,57.1,30.06,WNW,300,3.0,12.0,29,0.00,,---,0.00,VWS V14.01,2013-07-27 00:12:00,
2013-07-26 17:17:00,94.0,56.0,30.06,NW,309,4.0,12.0,28,0.00,,---,0.00,VWS V14.01,2013-07-27 00:17:00,
2013-07-26 17:22:00,93.3,56.3,30.06,WSW,238,5.0,12.0,29,0.00,,---,0.00,VWS V14.01,2013-07-27 00:22:00,
2013-07-26 17:27:00,92.9,56.0,30.06,NW,307,5.0,12.0,29,0.00,,---,0.00,VWS V14.01,2013-07-27 00:27:00,
2013-07-26 17:30:00,92.9,56.0,30.06,NW,311,4.0,12.0,29,0.00,,---,0.00,VWS V14.01,2013-07-27 00:30:00,
2013-07-26 17:32:00,93.0,56.1,30.06,NW,319,4.0,12.0,29,0.00,,---,0.00,VWS V14.01,2013-07-27 00:32:00,
2013-07-26 17:37:00,93.4,56.4,30.06,WNW,302,3.0,12.0,29,0.00,,---,0.00,VWS V14.01,2013-07-27 00:37:00,
2013-07-26 17:42:00,93.3,56.3,30.05,WNW,302,3.0,12.0,29,0.00,,---,0.00,VWS V14.01,2013-07-27 00:42:00,
2013-07-26 17:47:00,93.5,55.5,30.05,WSW,257,3.0,12.0,28,0.00,,---,0.00,VWS V14.01,2013-07-27 00:47:00,
2013-07-26 17:52:00,94.0,56.0,30.05,NW,312,3.0,12.0,28,0.00,,---,0.00,VWS V14.01,2013-07-27 00:52:00,
2013-07-26 17:57:00,93.8,55.8,30.05,WNW,291,5.0,12.0,28,0.00,,---,0.00,VWS V14.01,2013-07-27 00:57:00,
2013-07-26 18:00:00,93.8,55.8,30.05,WNW,284,3.0,12.0,28,0.00,,---,0.00,VWS V14.01,2013-07-27 01:00:00,
2013-07-26 18:02:00,92.9,55.0,30.05,NW,326,5.0,11.0,28,0.00,,---,0.00,VWS V14.01,2013-07-27 01:02:00,
2013-07-26 18:07:00,92.6,55.7,30.05,West,269,4.0,11.0,29,0.00,,---,0.00,VWS V14.01,2013-07-27 01:07:00,
2013-07-26 18:12:00,92.3,55.5,30.05,WNW,302,5.0,11.0,29,0.00,,---,0.00,VWS V14.01,2013-07-27 01:12:00,
2013-07-26 18:17:00,92.1,55.3,30.04,WNW,300,6.0,11.0,29,0.00,,---,0.00,VWS V14.01,2013-07-27 01:17:00,
2013-07-26 18:22:00,92.3,55.5,30.05,NW,309,3.0,11.0,29,0.00,,---,0.00,VWS V14.01,2013-07-27 01:22:00,
2013-07-26 18:27:00,91.7,55.0,30.05,West,280,3.0,11.0,29,0.00,,---,0.00,VWS V14.01,2013-07-27 01:27:00,
2013-07-26 18:30:00,91.7,55.0,30.05,WNW,289,1.0,11.0,29,0.00,,---,0.00,VWS V14.01,2013-07-27 01:30:00,
2013-07-26 18:32:00,91.2,55.5,30.05,WNW,293,4.0,8.0,30,0.00,,---,0.00,VWS V14.01,2013-07-27 01:32:00,
2013-07-26 18:37:00,90.7,55.0,30.05,NW,322,5.0,9.0,30,0.00,,---,0.00,VWS V14.01,2013-07-27 01:37:00,
2013-07-26 18:42:00,90.3,54.7,30.05,WSW,238,6.0,9.0,30,0.00,,---,0.00,VWS V14.01,2013-07-27 01:42:00,
2013-07-26 18:47:00,89.8,55.2,30.05,WNW,285,3.0,9.0,31,0.00,,---,0.00,VWS V14.01,2013-07-27 01:47:00,
2013-07-26 18:52:00,90.0,55.3,30.05,NW,325,8.0,10.0,31,0.00,,---,0.00,VWS V14.01,2013-07-27 01:52:00,
2013-07-26 18:57:00,89.9,55.2,30.05,WNW,302,6.0,10.0,31,0.00,,---,0.00,VWS V14.01,2013-07-27 01:57:00,
2013-07-26 19:00:00,89.9,55.2,30.05,NW,305,6.0,10.0,31,0.00,,---,0.00,VWS V14.01,2013-07-27 02:00:00,
2013-07-26 19:02:00,90.0,55.3,30.05,NW,315,5.0,10.0,31,0.00,,---,0.00,VWS V14.01,2013-07-27 02:02:00,
2013-07-26 19:07:00,90.1,54.5,30.05,WNW,287,10.0,10.0,30,0.00,,---,0.00,VWS V14.01,2013-07-27 02:07:00,
2013-07-26 19:12:00,89.7,55.1,30.05,NW,305,3.0,10.0,31,0.00,,---,0.00,VWS V14.01,2013-07-27 02:12:00,
2013-07-26 19:17:00,89.4,54.8,30.05,NW,309,4.0,10.0,31,0.00,,---,0.00,VWS V14.01,2013-07-27 02:17:00,
2013-07-26 19:22:00,89.0,54.5,30.05,NW,309,5.0,10.0,31,0.00,,---,0.00,VWS V14.01,2013-07-27 02:22:00,
2013-07-26 19:27:00,88.6,54.1,30.05,West,262,5.0,10.0,31,0.00,,---,0.00,VWS V14.01,2013-07-27 02:27:00,
2013-07-26 19:30:00,88.6,54.1,30.05,WNW,300,6.0,10.0,31,0.00,,---,0.00,VWS V14.01,2013-07-27 02:30:00,
2013-07-26 19:32:00,88.3,54.7,30.05,West,274,4.0,7.0,32,0.00,,---,0.00,VWS V14.01,2013-07-27 02:32:00,
2013-07-26 19:37:00,88.2,54.7,30.05,NW,305,6.0,7.0,32,0.00,,---,0.00,VWS V14.01,2013-07-27 02:37:00,
2013-07-26 19:42:00,87.8,54.3,30.05,West,259,0.0,8.0,32,0.00,,---,0.00,VWS V14.01,2013-07-27 02:42:00,
2013-07-26 19:47:00,87.4,54.0,30.05,WNW,302,3.0,8.0,32,0.00,,---,0.00,VWS V14.01,2013-07-27 02:47:00,
2013-07-26 19:52:00,86.8,54.3,30.05,WNW,299,6.0,9.0,33,0.00,,---,0.00,VWS V14.01,2013-07-27 02:52:00,
2013-07-26 19:57:00,86.3,53.8,30.05,West,259,3.0,9.0,33,0.00,,---,0.00,VWS V14.01,2013-07-27 02:57:00,
2013-07-26 20:00:00,86.3,53.8,30.05,WNW,300,2.0,9.0,33,0.00,,---,0.00,VWS V14.01,2013-07-27 03:00:00,
2013-07-26 20:02:00,85.9,54.3,30.05,WSW,239,2.0,5.0,34,0.00,,---,0.00,VWS V14.01,2013-07-27 03:02:00,
2013-07-26 20:07:00,85.2,53.7,30.05,SW,232,4.0,6.0,34,0.00,,---,0.00,VWS V14.01,2013-07-27 03:07:00,
2013-07-26 20:12:00,84.4,53.0,30.06,WSW,240,4.0,10.0,34,0.00,,---,0.00,VWS V14.01,2013-07-27 03:12:00,
2013-07-26 20:17:00,84.0,52.6,30.05,WSW,250,4.0,10.0,34,0.00,,---,0.00,VWS V14.01,2013-07-27 03:17:00,
2013-07-26 20:22:00,83.7,52.4,30.05,WSW,240,2.0,10.0,34,0.00,,---,0.00,VWS V14.01,2013-07-27 03:22:00,
2013-07-26 20:27:00,83.5,52.2,30.05,West,270,4.0,10.0,34,0.00,,---,0.00,VWS V14.01,2013-07-27 03:27:00,
2013-07-26 20:30:00,83.5,52.2,30.05,West,280,5.0,10.0,34,0.00,,---,0.00,VWS V14.01,2013-07-27 03:30:00,
2013-07-26 20:32:00,83.5,52.2,30.05,West,278,3.0,10.0,34,0.00,,---,0.00,VWS V14.01,2013-07-27 03:32:00,
2013-07-26 20:37:00,83.6,52.3,30.05,West,281,5.0,10.0,34,0.00,,---,0.00,VWS V14.01,2013-07-27 03:37:00,
2013-07-26 20:42:00,83.3,52.0,30.05,WSW,238,5.0,10.0,34,0.00,,---,0.00,VWS V14.01,2013-07-27 03:42:00,
2013-07-26 20:47:00,83.1,52.6,30.06,West,278,4.0,10.0,35,0.00,,---,0.00,VWS V14.01,2013-07-27 03:47:00,
2013-07-26 20:52:00,83.0,51.8,30.06,West,274,3.0,10.0,34,0.00,,---,0.00,VWS V14.01,2013-07-27 03:52:00,
2013-07-26 20:57:00,82.8,52.4,30.06,West,277,3.0,10.0,35,0.00,,---,0.00,VWS V14.01,2013-07-27 03:57:00,
2013-07-26 21:00:00,82.8,52.4,30.06,WSW,244,4.0,10.0,35,0.00,,---,0.00,VWS V14.01,2013-07-27 04:00:00,
2013-07-26 21:01:00,82.7,52.3,30.06,SW,232,3.0,7.0,35,0.00,,---,0.00,VWS V14.01,2013-07-27 04:01:00,
2013-07-26 21:02:00,82.6,52.2,30.06,WSW,255,4.0,8.0,35,0.00,,---,0.00,VWS V14.01,2013-07-27 04:02:00,
2013-07-26 21:07:00,82.5,52.1,30.06,WSW,245,5.0,8.0,35,0.00,,---,0.00,VWS V14.01,2013-07-27 04:07:00,
2013-07-26 21:12:00,82.4,52.0,30.06,SW,236,2.0,8.0,35,0.00,,---,0.00,VWS V14.01,2013-07-27 04:12:00,
2013-07-26 21:17:00,82.2,51.8,30.06,West,264,3.0,8.0,35,0.00,,---,0.00,VWS V14.01,2013-07-27 04:17:00,
2013-07-26 21:22:00,82.0,52.4,30.06,West,273,3.0,8.0,36,0.00,,---,0.00,VWS V14.01,2013-07-27 04:22:00,
2013-07-26 21:27:00,82.0,52.4,30.06,West,259,3.0,11.0,36,0.00,,---,0.00,VWS V14.01,2013-07-27 04:27:00,
2013-07-26 21:30:00,82.0,52.4,30.06,West,259,3.0,11.0,36,0.00,,---,0.00,VWS V14.01,2013-07-27 04:30:00,
2013-07-26 21:32:00,81.8,52.3,30.07,West,266,2.0,6.0,36,0.00,,---,0.00,VWS V14.01,2013-07-27 04:32:00,
2013-07-26 21:37:00,81.6,52.1,30.07,West,259,2.0,6.0,36,0.00,,---,0.00,VWS V14.01,2013-07-27 04:37:00,
2013-07-26 21:42:00,81.4,51.9,30.07,West,260,2.0,6.0,36,0.00,,---,0.00,VWS V14.01,2013-07-27 04:42:00,
2013-07-26 21:47:00,81.1,51.7,30.07,SW,230,1.0,6.0,36,0.00,,---,0.00,VWS V14.01,2013-07-27 04:47:00,
2013-07-26 21:52:00,80.8,52.1,30.07,SW,224,0.0,6.0,37,0.00,,---,0.00,VWS V14.01,2013-07-27 04:52:00,
2013-07-26 21:57:00,80.7,52.0,30.07,WSW,257,0.0,6.0,37,0.00,,---,0.00,VWS V14.01,2013-07-27 04:57:00,
2013-07-26 22:00:00,80.7,52.0,30.07,WSW,254,1.0,6.0,37,0.00,,---,0.00,VWS V14.01,2013-07-27 05:00:00,
2013-07-26 22:02:00,80.5,51.9,30.07,West,277,1.0,4.0,37,0.00,,---,0.00,VWS V14.01,2013-07-27 05:02:00,
2013-07-26 22:07:00,80.2,52.3,30.07,WSW,238,2.0,4.0,38,0.00,,---,0.00,VWS V14.01,2013-07-27 05:07:00,
2013-07-26 22:12:00,80.0,52.1,30.07,West,273,1.0,4.0,38,0.00,,---,0.00,VWS V14.01,2013-07-27 05:12:00,
2013-07-26 22:17:00,79.5,52.4,30.07,WNW,285,2.0,4.0,39,0.00,,---,0.00,VWS V14.01,2013-07-27 05:17:00,
2013-07-26 22:22:00,79.3,52.2,30.07,West,262,1.0,4.0,39,0.00,,---,0.00,VWS V14.01,2013-07-27 05:22:00,
2013-07-26 22:27:00,78.9,51.9,30.07,SW,233,2.0,4.0,39,0.00,,---,0.00,VWS V14.01,2013-07-27 05:27:00,
2013-07-26 22:30:00,78.8,51.8,30.07,West,263,1.0,4.0,39,0.00,,---,0.00,VWS V14.01,2013-07-27 05:30:00,
2013-07-26 22:32:00,78.4,52.1,30.07,WSW,257,3.0,3.0,40,0.00,,---,0.00,VWS V14.01,2013-07-27 05:32:00,
2013-07-26 22:37:00,77.9,52.3,30.07,WSW,245,1.0,4.0,41,0.00,,---,0.00,VWS V14.01,2013-07-27 05:37:00,
2013-07-26 22:42:00,78.0,52.4,30.07,West,271,1.0,4.0,41,0.00,,---,0.00,VWS V14.01,2013-07-27 05:42:00,
2013-07-26 22:47:00,78.3,52.7,30.08,WSW,247,1.0,4.0,41,0.00,,---,0.00,VWS V14.01,2013-07-27 05:47:00,
2013-07-26 22:52:00,78.4,52.8,30.07,West,266,1.0,6.0,41,0.00,,---,0.00,VWS V14.01,2013-07-27 05:52:00,
2013-07-26 22:57:00,78.4,52.8,30.08,West,263,2.0,6.0,41,0.00,,---,0.00,VWS V14.01,2013-07-27 05:57:00,
2013-07-26 23:00:00,78.5,52.2,30.08,WSW,243,3.0,6.0,40,0.00,,---,0.00,VWS V14.01,2013-07-27 06:00:00,
2013-07-26 23:02:00,78.4,52.8,30.07,West,266,3.0,5.0,41,0.00,,---,0.00,VWS V14.01,2013-07-27 06:02:00,
2013-07-26 23:07:00,78.1,52.5,30.07,WSW,255,3.0,5.0,41,0.00,,---,0.00,VWS V14.01,2013-07-27 06:07:00,
2013-07-26 23:12:00,77.6,52.1,30.07,WSW,250,1.0,5.0,41,0.00,,---,0.00,VWS V14.01,2013-07-27 06:12:00,
2013-07-26 23:17:00,79.1,52.0,30.07,WSW,240,4.0,7.0,39,0.00,,---,0.00,VWS V14.01,2013-07-27 06:17:00,
2013-07-26 23:22:00,80.2,52.3,30.07,West,279,3.0,7.0,38,0.00,,---,0.00,VWS V14.01,2013-07-27 06:22:00,
2013-07-26 23:27:00,80.8,52.1,30.07,West,269,3.0,7.0,37,0.00,,---,0.00,VWS V14.01,2013-07-27 06:27:00,
2013-07-26 23:30:00,80.8,52.1,30.07,NW,308,3.0,7.0,37,0.00,,---,0.00,VWS V14.01,2013-07-27 06:30:00,
2013-07-26 23:32:00,80.9,52.2,30.07,West,281,4.0,6.0,37,0.00,,---,0.00,VWS V14.01,2013-07-27 06:32:00,
2013-07-26 23:37:00,80.8,52.1,30.07,West,269,3.0,6.0,37,0.00,,---,0.00,VWS V14.01,2013-07-27 06:37:00,
2013-07-26 23:42:00,81.0,52.3,30.08,WSW,252,2.0,6.0,37,0.00,,---,0.00,VWS V14.01,2013-07-27 06:42:00,
2013-07-26 23:47:00,81.3,51.8,30.08,West,276,3.0,7.0,36,0.00,,---,0.00,VWS V14.01,2013-07-27 06:47:00,
2013-07-26 23:52:00,81.3,51.8,30.08,West,263,3.0,7.0,36,0.00,,---,0.00,VWS V14.01,2013-07-27 06:52:00,
2013-07-26 23:57:00,81.4,51.9,30.08,West,279,2.0,9.0,36,0.00,,---,0.00,VWS V14.01,2013-07-27 06:57:00,